Hourly Weather Rudziszki

Today, 22 April, Thursday

Time Temperature Precipitation Wind Pressure Humidity
00:00 +5°C° 0.1 mm 3 mps 748 mmHg 81%
01:00 +4°C° 0.1 mm 4 mps 748 mmHg 80%
02:00 +4°C° 0.1 mm 4 mps 748 mmHg 83%
03:00 +3°C° 0.1 mm 4 mps 748 mmHg 87%
04:00 +2°C° 0.1 mm 3 mps 748 mmHg 90%
05:00 +3°C° 0 mm 4 mps 748 mmHg 85%
06:00 +2°C° 0 mm 5 mps 748 mmHg 80%
07:00 +3°C° 0 mm 6 mps 748 mmHg 75%
08:00 +4°C° 0.1 mm 6 mps 748 mmHg 71%
09:00 +4°C° 0.1 mm 6 mps 748 mmHg 68%
10:00 +5°C° 0.1 mm 7 mps 748 mmHg 64%
11:00 +5°C° 0.3 mm 7 mps 748 mmHg 63%
12:00 +5°C° 0.3 mm 7 mps 748 mmHg 62%
13:00 +5°C° 0.3 mm 7 mps 748 mmHg 62%
14:00 +5°C° 0.2 mm 7 mps 749 mmHg 65%
15:00 +4°C° 0.2 mm 7 mps 749 mmHg 68%
16:00 +4°C° 0.2 mm 7 mps 749 mmHg 71%
17:00 +3°C° 0 mm 6 mps 749 mmHg 73%
18:00 +2°C° 0 mm 5 mps 749 mmHg 74%
19:00 +1°C° 0 mm 5 mps 750 mmHg 75%
20:00 0°C° 0.1 mm 5 mps 750 mmHg 81%
21:00 0°C° 0.1 mm 5 mps 750 mmHg 87%
22:00 0°C° 0.1 mm 5 mps 750 mmHg 93%
23:00 0°C° 0.2 mm 5 mps 750 mmHg 93%

Tomorrow, 23 April, Friday

Time Temperature Precipitation Wind Pressure Humidity
00:00 0°C° 0.2 mm 5 mps 750 mmHg 93%
01:00 0°C° 0.2 mm 5 mps 750 mmHg 93%
02:00 0°C° 0.1 mm 5 mps 750 mmHg 94%
03:00 0°C° 0.1 mm 5 mps 750 mmHg 95%
04:00 0°C° 0.1 mm 5 mps 751 mmHg 95%
05:00 0°C° 0.3 mm 5 mps 751 mmHg 91%
06:00 +1°C° 0.3 mm 6 mps 751 mmHg 87%
07:00 +1°C° 0.3 mm 6 mps 752 mmHg 83%
08:00 +2°C° 0.2 mm 6 mps 752 mmHg 74%
09:00 +3°C° 0.2 mm 6 mps 752 mmHg 66%
10:00 +4°C° 0.2 mm 7 mps 752 mmHg 57%
11:00 +4°C° 0.2 mm 7 mps 753 mmHg 56%
12:00 +4°C° 0.2 mm 7 mps 753 mmHg 54%
13:00 +4°C° 0.2 mm 7 mps 753 mmHg 52%
14:00 +4°C° 0.1 mm 7 mps 753 mmHg 53%
15:00 +4°C° 0.1 mm 7 mps 753 mmHg 54%
16:00 +3°C° 0.1 mm 6 mps 753 mmHg 54%
17:00 +2°C° 0.1 mm 5 mps 754 mmHg 62%
18:00 +1°C° 0.1 mm 5 mps 754 mmHg 69%
19:00 -1°C° 0.1 mm 4 mps 754 mmHg 77%
20:00 -1°C° 0 mm 4 mps 754 mmHg 80%
21:00 -1°C° 0 mm 3 mps 755 mmHg 83%
22:00 -2°C° 0 mm 3 mps 755 mmHg 87%
23:00 -1°C° 0 mm 3 mps 755 mmHg 83%

Day after tomorrow, 24 April, Saturday

Time Temperature Precipitation Wind Pressure Humidity
00:00 -1°C° 0 mm 3 mps 755 mmHg 79%
01:00 0°C° 0 mm 3 mps 755 mmHg 75%
02:00 -1°C° 0 mm 4 mps 755 mmHg 75%
03:00 -1°C° 0 mm 4 mps 755 mmHg 74%
04:00 -1°C° 0 mm 4 mps 755 mmHg 74%
05:00 0°C° 0 mm 4 mps 755 mmHg 70%
06:00 +1°C° 0 mm 4 mps 755 mmHg 67%
07:00 +3°C° 0 mm 4 mps 755 mmHg 63%
08:00 +3°C° 0 mm 5 mps 755 mmHg 56%
09:00 +4°C° 0 mm 6 mps 755 mmHg 48%
10:00 +5°C° 0 mm 7 mps 755 mmHg 41%
11:00 +5°C° 0.1 mm 7 mps 755 mmHg 44%
12:00 +5°C° 0.1 mm 7 mps 755 mmHg 47%
13:00 +4°C° 0.1 mm 8 mps 755 mmHg 50%
14:00 +4°C° 0.1 mm 7 mps 755 mmHg 50%
15:00 +4°C° 0.1 mm 7 mps 755 mmHg 51%
16:00 +3°C° 0.1 mm 7 mps 755 mmHg 52%
17:00 +2°C° 0 mm 6 mps 755 mmHg 57%
18:00 0°C° 0 mm 5 mps 756 mmHg 62%
19:00 -1°C° 0 mm 4 mps 756 mmHg 68%
20:00 -1°C° 0 mm 4 mps 756 mmHg 74%
21:00 -2°C° 0 mm 4 mps 756 mmHg 80%
22:00 -1°C° 0 mm 3 mps 756 mmHg 87%
23:00 -1°C° 0 mm 3 mps 756 mmHg 87%

25 April, Sunday

Time Temperature Precipitation Wind Pressure Humidity
00:00 -2°C° 0 mm 3 mps 756 mmHg 88%
01:00 -2°C° 0 mm 3 mps 756 mmHg 89%
02:00 -2°C° 0 mm 3 mps 756 mmHg 90%
03:00 -2°C° 0 mm 3 mps 756 mmHg 90%
04:00 -2°C° 0 mm 3 mps 756 mmHg 91%
05:00 -2°C° 0 mm 4 mps 756 mmHg 83%
06:00 0°C° 0 mm 5 mps 756 mmHg 75%
07:00 +1°C° 0 mm 5 mps 756 mmHg 67%
08:00 +2°C° 0.4 mm 5 mps 756 mmHg 68%
09:00 +2°C° 0.4 mm 6 mps 756 mmHg 68%
10:00 +2°C° 0.4 mm 6 mps 755 mmHg 68%
11:00 +3°C° 0.3 mm 6 mps 755 mmHg 62%
12:00 +4°C° 0.3 mm 7 mps 755 mmHg 56%
13:00 +4°C° 0.3 mm 7 mps 755 mmHg 50%
14:00 +4°C° 0.2 mm 7 mps 755 mmHg 54%
15:00 +3°C° 0.2 mm 7 mps 755 mmHg 57%
16:00 +2°C° 0.2 mm 6 mps 756 mmHg 61%
17:00 +1°C° 0.1 mm 6 mps 756 mmHg 66%
18:00 0°C° 0.1 mm 5 mps 756 mmHg 71%
19:00 -1°C° 0.1 mm 4 mps 756 mmHg 77%
20:00 -1°C° 0 mm 3 mps 756 mmHg 80%
21:00 -2°C° 0 mm 3 mps 756 mmHg 83%
22:00 -4°C° 0 mm 3 mps 756 mmHg 86%
23:00 -4°C° 0 mm 3 mps 756 mmHg 86%

26 April, Monday

Time Temperature Precipitation Wind Pressure Humidity
00:00 -4°C° 0 mm 3 mps 755 mmHg 85%
01:00 -4°C° 0 mm 3 mps 755 mmHg 85%
02:00 -4°C° 0 mm 3 mps 755 mmHg 84%
03:00 -4°C° 0 mm 3 mps 755 mmHg 83%
04:00 -3°C° 0 mm 2 mps 755 mmHg 83%
05:00 -2°C° 0 mm 3 mps 755 mmHg 74%
06:00 0°C° 0 mm 3 mps 754 mmHg 66%
07:00 +1°C° 0 mm 4 mps 754 mmHg 57%
08:00 +3°C° 0 mm 4 mps 754 mmHg 54%
09:00 +5°C° 0 mm 5 mps 754 mmHg 51%
10:00 +5°C° 0 mm 6 mps 754 mmHg 48%
11:00 +5°C° 0.2 mm 6 mps 754 mmHg 47%
12:00 +7°C° 0.2 mm 6 mps 754 mmHg 47%
13:00 +7°C° 0.2 mm 6 mps 753 mmHg 47%
14:00 +7°C° 0 mm 6 mps 754 mmHg 49%
15:00 +5°C° 0 mm 6 mps 754 mmHg 51%
16:00 +6°C° 0 mm 5 mps 754 mmHg 53%
17:00 +4°C° 0 mm 4 mps 754 mmHg 62%
18:00 +2°C° 0 mm 3 mps 754 mmHg 70%
19:00 +2°C° 0 mm 2 mps 754 mmHg 79%
20:00 +1°C° 0 mm 2 mps 754 mmHg 83%
21:00 +1°C° 0 mm 1 mps 754 mmHg 86%
22:00 0°C° 0 mm 1 mps 754 mmHg 90%
23:00 0°C° 0 mm 1 mps 754 mmHg 91%

27 April, Tuesday

Time Temperature Precipitation Wind Pressure Humidity
00:00 0°C° 0 mm 1 mps 754 mmHg 91%
01:00 0°C° 0 mm 1 mps 754 mmHg 92%
02:00 0°C° 0 mm 1 mps 754 mmHg 92%
03:00 0°C° 0 mm 1 mps 753 mmHg 91%
04:00 -1°C° 0 mm 1 mps 753 mmHg 91%
05:00 +1°C° 0 mm 1 mps 753 mmHg 83%
06:00 +3°C° 0 mm 1 mps 753 mmHg 76%
07:00 +4°C° 0 mm 1 mps 753 mmHg 68%
08:00 +6°C° 0 mm 1 mps 752 mmHg 63%
09:00 +7°C° 0 mm 1 mps 752 mmHg 58%
10:00 +8°C° 0 mm 1 mps 752 mmHg 53%
11:00 +9°C° 0 mm 1 mps 751 mmHg 51%
12:00 +10°C° 0 mm 1 mps 751 mmHg 50%
13:00 +10°C° 0 mm 1 mps 750 mmHg 48%
14:00 +9°C° 0 mm 2 mps 750 mmHg 50%
15:00 +9°C° 0 mm 2 mps 749 mmHg 51%
16:00 +9°C° 0 mm 3 mps 749 mmHg 52%
17:00 +8°C° 0 mm 3 mps 748 mmHg 59%
18:00 +7°C° 0 mm 3 mps 748 mmHg 66%
19:00 +4°C° 0 mm 3 mps 748 mmHg 73%
20:00 +4°C° 0 mm 4 mps 747 mmHg 74%
21:00 +4°C° 0 mm 4 mps 747 mmHg 75%
22:00 +3°C° 0 mm 4 mps 746 mmHg 76%
23:00 +3°C° 0 mm 4 mps 746 mmHg 76%
Show more